Regional Weather Roundup
Issued by NWS Goodland, KS

Home | Current Version | Previous Version | Graphics & Text | Print | Product List | Glossary Off
Versions: 1 2 3 4 5 6 7 8 9 10 11 12 13 14 15 16 17 18 19 20 21 22 23 24 25 26 27 28 29 30 31 32 33 34 35 36 37 38 39 40 41 42 43 44 45 46 47 48 49 50

000
ASUS43 KGLD 252259
RWRGLD

GOODLAND FORECAST AREA HOURLY WEATHER ROUNDUP
NATIONAL WEATHER SERVICE GOODLAND KS
500 PM MDT SUN SEP 25 2016

...OFFICIAL OBSERVATIONS...

CITY           SKY/WX    TMP DP  RH WIND       PRES   REMARKS
GOODLAND KS    SUNNY     69  33  26 N16G24    30.32R
HILL CITY KS   SUNNY     73  30  20 N13       30.25R
IMPERIAL NEB   SUNNY     69  28  21 N22       30.31R
MCCOOK NEB     SUNNY     71  22  15 N20G26    30.27R
AKRON CO       SUNNY     66  31  27 N9        30.37S
BURLINGTON CO  SUNNY     68  30  24 N14G24    30.35R
LIMON CO       SUNNY     66  27  23 N7        30.39R
$$

...UNOFFICIAL OBSERVATIONS...

CITY           SKY/WX    TMP DP  RH WIND       PRES   REMARKS
COLBY KS       MOSUNNY   72  39  30 NW17G26   30.31R
LENORA KS        N/A     71  32  23 MISG        N/A
NORTON KS      SUNNY     73  16  11 NW15G25   30.24R
SHARON SPRINGS   N/A     71  37  29 N12G20      N/A
KIT CARSON CO    N/A     72  35  25 MISG        N/A
$$




USA.gov is the U.S. government's official web portal to all federal, state and local government web resources and services.